This demonstration page uses our WeatherBlox Daily Observations layout. Learn more.

Left ArrowRight Arrow

39.01783, -85.05884

Hourly Observations for August 22, 2015

Temp ( °F °C ) Dew Point ( °F °C ) Humidity (%) Winds ( mph kmh ) Pressure ( in mb ) Visibility ( mi km ) Precip ( " mm )
12:52 am 00:52 Clear 67 19.4 54 12.2 63 63 ESE 3 6 30.12 1020 10 16.0934 N/A
1:52 am 01:52 Clear 66 18.9 54 12.2 65 65 N N/A 30.11 1020 10 16.0934 N/A
2:52 am 02:52 Clear 64 17.8 54 12.2 70 70 N N/A 30.1 1019 10 16.0934 N/A
3:52 am 03:52 Clear 63 17.2 55 12.8 76 76 E 3 6 30.1 1019 10 16.0934 N/A
4:52 am 04:52 Clear 62 16.7 55 12.8 78 78 N N/A 30.1 1019 10 16.0934 N/A
5:52 am 05:52 Clear 62 16.7 55 12.8 78 78 ENE 3 6 30.11 1020 10 16.0934 N/A
6:52 am 06:52 Mostly Clear 59 15 56 13.3 90 90 NNE 3 6 30.12 1020 10 16.0934 N/A
7:52 am 07:52 Mostly Sunny 63 17.2 56 13.3 78 78 ENE 5 7 30.13 1020 10 16.0934 N/A
8:52 am 08:52 Mostly Sunny 67 19.4 56 13.3 68 68 ENE 6 9 30.14 1021 10 16.0934 N/A
9:52 am 09:52 Mostly Sunny 70 21.1 56 13.3 61 61 E 8 13 30.14 1021 10 16.0934 N/A
10:52 am 10:52 Mostly Sunny 73 22.8 56 13.3 55 55 E 8 13 30.15 1021 10 16.0934 N/A
11:52 am 11:52 Partly Cloudy 76 24.4 57 13.9 52 52 SE 10 17 30.14 1021 10 16.0934 N/A
12:52 pm 12:52 Partly Cloudy 77 25 57 13.9 50 50 SE 8 13 30.13 1020 10 16.0934 N/A
1:52 pm 13:52 Partly Cloudy 78 25.6 57 13.9 48 48 E 7 11 30.11 1020 10 16.0934 N/A
2:52 pm 14:52 Mostly Cloudy 79 26.1 56 13.3 45 45 ESE 5 7 30.09 1019 10 16.0934 N/A
3:52 pm 15:52 Partly Cloudy 79 26.1 56 13.3 45 45 VRB 3 6 30.08 1019 10 16.0934 N/A
4:52 pm 16:52 Mostly Cloudy 80 26.7 57 13.9 45 45 SE 7 11 30.05 1018 10 16.0934 N/A
5:52 pm 17:52 Mostly Cloudy 78 25.6 56 13.3 47 47 VRB 3 6 30.04 1017 10 16.0934 N/A
6:52 pm 18:52 Mostly Cloudy 78 25.6 58 14.4 50 50 VRB 6 9 30.03 1017 10 16.0934 N/A
7:52 pm 19:52 Mostly Cloudy 75 23.9 57 13.9 54 54 ESE 7 11 30.02 1017 10 16.0934 N/A
8:52 pm 20:52 Mostly Cloudy 72 22.2 57 13.9 59 59 ESE 5 7 30.02 1017 10 16.0934 N/A
9:52 pm 21:52 Mostly Cloudy 71 21.7 58 14.4 63 63 N N/A 30.02 1017 10 16.0934 N/A
10:52 pm 22:52 Mostly Cloudy 68 20 58 14.4 70 70 ESE 3 6 30.02 1017 10 16.0934 N/A
11:52 pm 23:52 Mostly Cloudy 69 20.6 58 14.4 68 68 ESE 5 7 30.02 1017 10 16.0934 N/A

Powered by AerisWeather